Location: Great Chart
(51.1333°N, 0.8333°E)
Time: 23:40:18
(UTC+00:00)

Daily predictions for brighter satellites

Satellite Brightness Start Highest point End
(mag) Time Altitude Azimuth Time Altitude Azimuth Time Altitude Azimuth
Cosmos 2279 Rocket 4.4 16:18:45 10° SSE 16:24:29 41° E 16:30:16 10° NNE
Cosmos 1570 Rocket 4.0 16:20:15 10° NNW 16:25:37 70° ENE 16:30:54 10° SSE
Cosmos 1092 Rocket 4.0 16:20:18 10° N 16:26:30 85° ENE 16:32:39 10° S
Cosmos 836 Rocket 4.5 16:23:39 10° NNW 16:28:53 68° ENE 16:34:08 10° SE
SMAP 3.5 16:27:03 10° SE 16:31:21 38° ENE 16:35:41 10° N
Cosmos 1656 4.3 16:26:30 10° S 16:31:41 40° ESE 16:36:56 10° NE
Cosmos 1867 4.0 16:29:28 10° NW 16:34:42 43° NE 16:39:53 10° ESE
NOSS 2-2 (C) 2.7 16:31:47 10° SW 16:35:00 67° SE 16:37:59 10° NE
Cosmos 2228 3.0 16:31:24 10° S 16:35:34 61° E 16:39:47 10° NNE
YAOGAN 1 4.3 16:34:00 10° ENE 16:35:36 12° NE 16:37:12 10° NNE
Landsat 7 4.4 16:32:40 10° SE 16:36:52 34° ENE 16:41:05 10° N
Cosmos 2297 Rocket 2.2 16:33:21 10° NNW 16:38:59 60° NE 16:44:35 10° SE
USA 290 2.8 16:36:08 10° N 16:39:13 37° ENE 16:42:16 10° SE
USA 215 3.6 16:36:01 10° ENE 16:42:23 55° N 16:48:45 10° W
Cosmos 773 Rocket 4.0 16:37:13 10° NNW 16:42:26 70° ENE 16:47:39 10° SSE
ATLAS CENTAUR R/B 0.7 16:42:43 10° NW 16:46:00 87° SW 16:49:09 10° SE
Cosmos 1782 3.0 16:42:38 10° SSE 16:46:01 39° E 16:49:25 10° NNE
CZ-4C R/B 2.9 16:40:03 10° NW 16:46:35 65° NE 16:54:53 10° ESE
JB-3 4.4 16:43:42 10° N 16:47:22 69° WNW 16:50:58 10° SSW
Cosmos 1607 3.9 16:41:49 10° NW 16:48:03 73° NE 16:54:20 10° SE
Cosmos 1733 1.2 16:47:41 10° N 16:49:14 44° ENE 16:50:47 10° SSE
CZ-2D R/B 3.5 16:49:49 10° SE 16:52:36 30° ENE 16:55:25 10° N
Lacrosse 4 Rocket 2.3 16:50:58 10° WSW 16:54:51 42° NW 16:58:42 10° NNE
Cosmos 2219 4.4 16:50:45 10° NNW 16:55:17 23° NE 16:59:37 11° E
Cosmos 1825 Rocket 4.4 16:52:20 10° N 16:56:05 27° ENE 16:59:47 10° SE
ARIANE 5 R/B 2.6 16:52:29 10° SE 16:57:24 53° ENE 17:02:24 10° N
Meteor 1-27 4.4 16:51:47 10° SSW 16:57:37 80° WNW 17:03:24 10° N
Iridium 51 3.9 16:54:40 10° S 16:57:47 73° W 17:01:00 10° N
Cosmos 1758 Rocket 3.4 16:54:11 10° N 16:58:32 78° E 17:02:48 10° SSE
Cosmos 2266 Rocket 4.1 16:52:31 10° N 16:58:33 51° ENE 17:04:27 10° SSE
Cosmos 1315 Rocket 3.3 16:55:17 10° SSW 16:59:04 59° WNW 17:02:52 10° N
Cosmos 2208 Rocket 4.1 16:56:56 10° NNW 17:02:08 84° WSW 17:07:18 10° SSE
Cosmos 2098 Rocket 3.2 16:58:27 10° S 17:02:26 55° E 17:07:11 10° NNE
Cosmos 2151 3.0 16:59:46 10° N 17:03:52 54° ENE 17:07:57 10° SSE
Cosmos 1743 2.2 17:01:20 10° N 17:04:35 64° ENE 17:07:48 10° SSE
Cosmos 1980 Rocket 3.8 17:04:40 10° SE 17:07:18 13° E 17:08:01 13° E
SPOT 1/Viking Rocket 4.1 17:02:48 10° SE 17:07:27 34° ENE 17:12:08 10° N
Cosmos 1844 Rocket 4.4 17:06:17 10° N 17:09:22 15° NNE 17:10:59 13° NE
SL-08 ROCKET BODY 4.4 17:06:10 10° N 17:12:08 87° W 17:18:09 10° S
SL-16 R/B 2.7 17:09:21 10° NNE 17:15:37 77° WNW 17:21:48 10° SSW
Cosmos 2263 Rocket 2.7 17:11:58 10° NNW 17:17:12 37° NE 17:22:26 10° ESE
NOSS 3-2 (A) 3.2 17:13:50 10° SW 17:18:58 86° NW 17:24:04 16° NE
NOSS 3-2 (C) 3.5 17:14:15 10° SSW 17:19:03 46° ESE 17:23:02 18° ENE
IGS 5A 4.4 17:16:39 10° S 17:20:29 48° W 17:24:22 10° NNW
CORIOLIS 4.3 17:15:11 10° SSE 17:20:31 79° WSW 17:25:54 10° NNW
Cosmos 1626 Rocket 4.4 17:17:33 10° NNW 17:21:47 53° W 17:25:58 10° S
Cosmos 783 Rocket 4.4 17:17:54 10° NNW 17:23:14 73° ENE 17:28:31 10° SSE
GEOS 3 Rocket 3.7 17:19:36 15° NE 17:24:05 80° SE 17:29:28 10° SW
MOS 1 Rocket 3.4 17:19:45 10° SSE 17:24:35 65° ENE 17:29:44 10° N
BREEZE M DEB (TANK) 3.4 17:23:01 10° SSW 17:24:52 20° SSE 17:25:20 18° SE
Cosmos 1076 Rocket 4.1 17:21:36 10° N 17:25:31 33° ENE 17:29:26 10° SE
AQUARIUS 4.0 17:23:12 10° SSE 17:27:34 71° ENE 17:31:59 10° N
Cosmos 1933 3.5 17:24:57 10° SSE 17:28:34 42° E 17:30:45 21° NNE
Cosmos 2084 Rocket 3.4 17:25:45 10° NW 17:29:59 81° SW 17:34:11 10° SE
Cosmos 2227 Rocket 2.1 17:24:33 10° NNW 17:30:12 65° ENE 17:35:48 10° SE
SJ-12 3.6 17:26:41 10° SSE 17:30:27 88° ENE 17:34:16 10° NNW
Cosmos 1538 Rocket 4.5 17:26:13 10° NNW 17:31:09 38° NE 17:36:05 10° SE
BlueWalker 3 4.3 17:28:36 10° W 17:31:26 22° SW 17:34:17 10° SSE
Cosmos 1606 Rocket 3.8 17:27:52 10° SSE 17:32:04 45° E 17:35:23 16° NNE
Meteor 1-28 Rocket 4.0 17:29:04 10° N 17:32:17 44° WNW 17:35:29 10° SW
Cosmos 2360 4.2 17:26:54 10° SSW 17:32:38 80° ESE 17:37:26 15° NNE
Cosmos 1900 4.3 17:27:34 10° NW 17:32:40 90° SSW 17:37:39 10° SE
Thor Agena Rocket 4.4 17:28:46 10° S 17:33:52 54° WSW 17:38:57 10° NNW
Cosmos 2369 Rocket 4.2 17:31:22 10° W 17:35:29 20° NW 17:39:37 10° NNE
PSLV R/B 4.1 17:36:04 26° E 17:37:20 31° ENE 17:40:57 10° N
CZ-2D R/B 3.7 17:34:05 10° SE 17:38:03 43° ENE 17:42:01 10° N
COSMO-SKYMED 1 3.7 17:39:14 22° ESE 17:39:14 22° ESE 17:41:44 10° SSE
NOSS 2-2 (D) 3.1 17:35:43 10° WSW 17:38:53 55° NW 17:40:03 31° NNE
Cosmos 1544 Rocket 4.3 17:36:54 10° SSW 17:41:12 53° WNW 17:45:34 10° N
SL-19 R/B 4.5 17:36:48 10° SE 17:41:54 45° ENE 17:47:16 10° N
Resurs 1-3 3.9 17:38:05 10° SE 17:42:06 40° ENE 17:46:08 10° N
Cosmos 1503 Rocket 3.9 17:37:08 10° SSW 17:42:21 72° ESE 17:46:10 19° NNE
BREEZE-M DEB (TANK) 3.6 17:39:18 10° W 17:42:28 74° S 17:48:33 19° E
IRS-1C 4.5 17:40:23 10° S 17:45:41 67° WSW 17:51:01 10° NNW
Cosmos 1697 Rocket 2.8 17:42:22 10° S 17:47:47 54° ESE 17:50:44 26° NE
Okean 1-7 Rocket 3.7 17:44:30 10° NNW 17:48:55 76° W 17:53:15 10° S
Lacrosse 5 rocket 1.9 17:45:32 10° W 17:49:02 38° NNW 17:49:58 32° NNE
Cosmos 1354 Rocket 4.0 17:45:27 10° S 17:50:37 61° ESE 17:53:34 25° NE
BREEZE-M DEB (TANK) 3.7 17:48:23 10° W 17:51:40 78° N 17:57:03 25° E
Cosmos 1461 2.6 17:49:25 10° SSW 17:53:18 71° SE 17:54:18 46° ENE
NOSS 2-2 (E) 3.3 17:50:38 10° WSW 17:53:46 50° NW 17:54:24 41° N
Spot 4 Rocket 4.0 17:50:50 10° SSE 17:55:52 61° ENE 18:00:55 10° N
IRAS Rocket 4.2 17:51:46 10° SE 17:57:07 56° ENE 18:02:28 10° N
Cosmos 1726 Rocket 3.6 17:52:44 10° S 17:57:18 61° E 17:59:49 26° NNE
Cosmos 1655 Rocket 3.9 17:53:40 10° N 17:59:57 76° ENE 18:06:10 10° SSE
SKYMED 2 3.6 17:59:35 37° NE 18:01:04 58° E 18:05:20 10° S
Cosmos 1777 Rocket 4.2 17:56:14 10° SSW 18:01:29 73° WNW 18:05:19 19° NNE
Gbstr 26 Del rocket 3.5 17:58:54 10° SW 18:02:30 34° SSE 18:02:38 34° SE
NOAA 15 4.5 18:01:07 10° SSE 18:06:24 77° ENE 18:11:42 10° NNW
Meteor 2-10 4.0 18:01:53 10° N 18:07:09 60° ENE 18:12:35 10° SSE
CENTAUR R/B 3.6 18:02:13 10° W 18:08:06 40° NNW 18:12:28 22° NE
YAOGAN 1 2.3 18:06:29 10° SSE 18:10:43 76° ENE 18:14:59 10° N
Cosmos 2082 3.8 18:10:35 10° NNW 18:16:10 51° NE 18:17:04 47° E
USA 281 4.3 18:17:15 25° NNE 18:17:15 25° NNE 18:21:59 10° NNW
Cosmos 1867 4.5 18:13:07 10° NW 18:18:24 49° WSW 18:23:36 10° SSE
Meteor 1-26 Rocket 4.5 18:13:44 10° SSE 18:18:03 42° ESE 18:18:03 42° ESE
USA 238 DEB 3.8 18:13:29 10° S 18:19:11 43° ESE 18:19:57 41° ESE
USA 238 3.8 18:13:36 10° S 18:19:18 43° ESE 18:20:02 41° ESE
SJ-7 4.3 18:19:53 66° NNW 18:19:53 66° NNW 18:23:10 10° NNW
Resurs 01 Rocket 3.9 18:25:00 13° N 18:25:00 13° N 18:25:32 10° N
Cosmos 2297 Rocket 4.2 18:17:54 10° NW 18:22:39 28° WSW 18:27:24 10° SSW
Cosmos 1953 Rocket 3.6 18:18:47 10° NNW 18:23:14 77° W 18:27:39 10° S
USA 215 3.4 18:22:49 42° ENE 18:24:57 61° NNE 18:31:24 10° WNW
Aureole 1 Rocket 4.0 18:24:24 10° S 18:27:16 38° SSE 18:27:16 38° SSE
Lacrosse 4 Rocket 3.9 18:32:08 10° NW 18:33:42 12° NNW 18:34:34 11° NNW
CZ-4C R/B 4.0 18:28:19 10° NW 18:35:00 45° WSW 18:43:05 10° S
USA 81 4.0 18:31:32 10° N 18:36:50 80° W 18:42:05 10° S
Cosmos 990 Rocket 4.1 18:33:07 10° SSW 18:38:14 70° WNW 18:39:47 44° N
Cosmos 2219 3.1 18:34:29 10° NNW 18:40:16 84° ENE 18:41:35 56° SE
NOAA 6 4.0 18:36:00 10° SSE 18:41:07 83° WSW 18:46:16 10° NNW
Cosmos 1980 Rocket 2.1 18:44:39 10° SSW 18:49:48 69° SSE 18:49:48 69° SSE
Cosmos 2058 Rocket 4.2 18:49:15 10° SSW 18:51:55 36° SSW 18:51:55 36° SSW
Nadezhda 2 Rocket 4.3 18:48:05 10° N 18:54:15 87° W 19:00:21 10° S
Cosmos 1844 Rocket 3.9 18:49:27 10° NNW 18:52:38 30° N 18:52:38 30° N
Cosmos 2263 Rocket 2.9 18:55:51 10° NW 19:01:19 51° WSW 19:04:58 21° S
Cosmos 1553 Rocket 3.8 19:00:45 10° S 19:06:49 88° S 19:06:49 88° S
NOSS 3-2 (C) 3.9 19:04:40 10° WSW 19:09:51 48° NNW 19:10:27 47° NNW
Meteor 2-11 Rocket 4.4 19:04:11 10° N 19:09:56 78° NNW 19:09:56 78° NNW
Cosmos 2227 Rocket 4.2 19:09:14 10° NW 19:13:47 26° WSW 19:18:20 10° SSW
COSMO-SKYMED 1 4.4 19:15:34 26° WSW 19:15:34 26° WSW 19:17:41 10° SW
Lacrosse 5 rocket 4.2 19:23:17 10° WNW 19:23:33 12° WNW 19:23:33 12° WNW
Cosmos 1697 Rocket 3.9 19:26:53 10° WSW 19:32:00 35° NW 19:32:28 34° NW
CENTAUR R/B 4.1 19:54:23 10° WNW 19:59:34 32° N 19:59:34 32° N
USA 215 4.1 20:10:11 44° WNW 20:10:11 44° WNW 20:14:30 10° WNW
